This is the latest recevied weather packets stored in our database for station/object BMCB-28. If no packets are shown the sender has not sent any weather packets the latest 10 day(s).
| Time | Temp. | Humidity | Pressure | Rain* | Wind** | Luminosity | Snow |
|---|---|---|---|---|---|---|---|
| 1777992049 | 11.67° C | 91% | 1009.4 hPa | 0 mm | - | 64 W/m² | - |
| 1777990853 | 12.22° C | 89% | 1009.2 hPa | 0 mm | - | 90 W/m² | - |
| 1777984251 | 13.89° C | 84% | 1009.5 hPa | 0 mm | - | 282 W/m² | - |
| 1777980650 | 13.89° C | 85% | 1009.9 hPa | 0 mm | - | 272 W/m² | - |
| 1777972847 | 12.78° C | 88% | 1010.7 hPa | 0 mm | - | 272 W/m² | - |
| 1777971049 | 12.22° C | 91% | 1011 hPa | 0 mm | - | 224 W/m² | - |
| 1777965645 | 11.11° C | 96% | 1011.5 hPa | 0 mm | - | 122 W/m² | - |
| 1777959645 | 10° C | 10% | 1011.8 hPa | 0 mm | - | - | - |
| 1777956649 | 9.44° C | 10% | 1011.9 hPa | 0 mm | - | - | - |
| 1777956041 | 9.44° C | 10% | 1012 hPa | 0 mm | - | - | - |
| 1777955445 | 9.44° C | 10% | 1012 hPa | 0 mm | - | - | - |
| 1777952448 | 9.44° C | 10% | 1012.1 hPa | 0 mm | - | - | - |
| 1777951848 | 9.44° C | 99% | 1012.3 hPa | 0 mm | - | 0 W/m² | - |
| 1777948848 | 10° C | 99% | 1012.6 hPa | 0.25 mm | - | 0 W/m² | - |
| 1777944047 | 10° C | 99% | 1012.9 hPa | 0 mm | - | 0 W/m² | - |
| 1777942243 | 10° C | 99% | 1013 hPa | 0 mm | - | 0 W/m² | - |
| 1777935655 | 10° C | 99% | 1013.9 hPa | 0.25 mm | - | 0 W/m² | - |
| 1777935057 | 10° C | 99% | 1014 hPa | 0.25 mm | - | 0 W/m² | - |
| 1777932056 | 10° C | 99% | 1014.5 hPa | 0 mm | - | 0 W/m² | - |
| 1777931467 | 10° C | 99% | 1014.6 hPa | 0 mm | - | 0 W/m² | - |
| 1777927262 | 10° C | 98% | 1014.8 hPa | 0.25 mm | - | 0 W/m² | - |
| 1777924862 | 10° C | 98% | 1015 hPa | 0 mm | - | 0 W/m² | - |
| 1777920057 | 10.56° C | 97% | 1014.6 hPa | 0.51 mm | - | 2 W/m² | - |
| 1777915860 | 10.56° C | 95% | 1014.9 hPa | 0 mm | - | 6 W/m² | - |
| 1777914658 | 11.11° C | 94% | 1014.9 hPa | 0 mm | - | 16 W/m² | - |
* Rain latest hour (hover to see other rain measurements)
** Current wind speed in m/s (hover to see current wind gust speed)